Wind_Speed
23 23 23 24 24 23 21 21 21 20 18 17 17 17 17 17 18 18 18 18 18 18 18 17 17 16 15 14 13 12 12 11 11 11 10 10 9 8 7 8 7 7 7 7 7 7 7 7 7 7 7 7 7 8 8 8 8 8 8 8 10 10 11
24 25 26 25 25 23 22 21 21 21 19 18 18 18 18 18 18 19 19 19 19 19 19 18 17 16 14 14 13 12 12 12 12 12 12 11 11 10 9 9 9 8 8 8 8 8 7 8 8 8 8 8 9 9 9 9 9 10 10 10 11 11 12
25 27 28 27 26 25 23 22 22 22 21 20 20 19 19 19 19 19 19 19 19 19 19 18 17 15 14 13 13 12 12 12 12 12 12 13 13 12 12 12 11 11 10 9 9 9 9 9 9 9 10 10 10 10 10 11 11 10 10 11 11 11 12
28 29 30 29 28 26 25 24 23 22 21 21 21 21 20 19 19 19 19 19 19 19 19 17 16 15 15 14 13 13 12 12 13 13 13 14 14 14 14 13 14 14 13 12 11 10 10 12 11 11 11 11 11 11 11 12 11 11 11 11 11 12 12
30 31 31 30 27 27 26 24 23 22 21 22 22 21 20 19 19 19 19 19 19 20 19 17 16 16 15 15 14 14 14 14 14 14 15 15 15 15 14 14 16 15 14 14 14 12 11 12 12 12 12 13 13 13 13 13 12 12 12 12 12 13 13
32 32 31 28 27 27 26 24 23 22 22 22 22 21 20 19 19 19 19 19 20 20 19 17 17 16 16 15 15 14 14 14 14 15 16 16 15 15 14 14 16 16 14 13 15 14 13 12 13 14 14 15 15 15 15 15 14 14 13 13 13 13 13
32 32 30 27 26 26 25 24 23 23 23 22 21 20 20 19 19 19 20 21 20 20 19 18 17 16 16 15 15 14 14 13 14 14 15 15 15 15 14 13 15 16 15 15 15 15 14 13 14 15 16 16 16 16 16 16 16 15 15 15 14 14 15
29 30 28 27 26 25 25 24 23 23 23 22 21 20 20 19 19 20 21 21 20 20 19 18 17 17 15 14 14 13 12 12 12 12 13 14 13 13 12 12 13 14 14 14 14 14 14 13 14 15 16 16 16 16 16 15 16 15 15 15 15 15 15
27 28 27 26 25 25 24 22 22 22 22 21 21 19 19 19 19 20 20 20 20 19 19 18 18 17 16 14 13 12 11 11 11 11 11 11 12 11 11 11 11 12 12 12 12 12 12 13 13 15 15 14 14 14 14 14 14 14 14 14 14 14 14
26 27 27 25 24 24 23 21 21 22 21 20 20 19 19 18 18 18 18 18 19 19 19 18 18 17 16 15 13 11 10 11 11 10 10 11 11 11 11 11 11 11 11 11 11 11 11 11 12 13 13 13 13 13 13 13 13 13 13 13 13 13 13
27 27 26 23 22 22 20 20 21 21 20 20 20 19 18 17 17 17 17 17 18 19 19 18 18 17 16 15 14 12 10 10 10 10 10 10 10 11 11 11 11 10 10 10 10 11 11 11 11 13 13 13 13 13 13 13 13 12 12 12 12 12 12
25 25 24 23 22 20 19 20 20 19 20 20 20 19 17 17 17 16 16 16 18 19 19 19 18 16 15 16 15 13 11 10 10 9 9 9 9 10 10 10 10 9 9 9 10 11 11 11 11 12 13 13 14 14 14 14 13 12 12 13 12 12 12
23 22 24 24 22 20 20 19 18 18 19 19 18 18 16 15 15 15 16 16 18 19 18 18 17 16 15 15 15 14 12 12 11 10 9 9 9 9 9 9 9 9 9 9 10 11 12 12 12 13 13 14 14 14 15 15 14 14 14 14 14 14 14
22 23 25 23 20 19 19 18 17 17 18 18 17 16 16 15 15 15 16 17 18 19 18 18 17 16 15 15 15 14 14 13 13 12 11 10 10 10 9 10 10 11 11 11 12 13 13 14 14 14 14 15 15 15 15 15 15 16 16 16 16 16 16
23 24 25 22 19 19 19 18 17 18 18 17 16 16 16 16 15 15 16 17 19 19 19 18 17 16 15 15 15 15 15 15 15 14 14 13 12 12 12 12 12 13 14 15 15 15 15 16 16 16 16 16 15 16 16 16 17 17 17 18 18 19 19
24 25 24 22 21 20 19 18 18 19 18 16 16 17 18 18 18 17 18 19 20 20 20 19 18 17 17 16 16 16 16 16 16 16 16 15 14 14 14 14 15 16 17 17 17 17 17 18 18 18 17 17 16 16 17 17 17 17 18 19 20 20 20
25 25 24 23 21 20 19 19 20 19 17 16 16 17 17 18 18 18 18 19 19 20 20 19 18 18 18 18 18 18 18 18 18 18 17 17 17 16 16 17 17 18 19 19 19 19 19 19 20 20 19 19 18 17 17 17 18 18 19 20 20 20 21
23 22 22 21 20 19 19 20 20 19 17 16 16 17 17 17 17 16 16 17 17 17 18 18 18 18 19 19 19 19 20 20 20 20 19 19 18 18 19 19 20 20 20 20 20 20 20 20 21 21 21 20 19 19 18 18 19 19 20 21 21 21 21
23 21 22 22 20 18 19 19 20 19 18 18 18 18 18 17 16 15 15 15 15 16 17 18 18 19 20 20 21 21 21 21 22 22 22 21 21 20 21 21 21 21 21 21 22 21 21 22 23 23 22 22 21 20 19 19 20 20 21 21 22 22 22
25 24 24 23 20 19 20 20 20 20 20 19 19 20 20 19 18 17 16 16 16 17 19 20 21 21 21 22 23 23 23 23 23 23 23 23 23 22 22 22 22 22 22 22 22 22 22 23 24 24 24 23 22 21 20 21 21 22 22 22 23 23 23
24 24 23 22 21 21 21 21 21 21 21 21 22 22 23 22 21 19 19 18 18 19 20 22 23 23 23 24 24 25 25 24 24 23 23 23 23 23 22 22 22 22 22 22 22 23 24 24 25 25 25 24 23 22 22 22 22 22 22 23 24 25 26
25 25 23 22 22 20 19 20 21 21 22 23 23 24 25 25 24 23 21 21 20 20 21 21 22 23 23 24 25 25 25 25 24 23 23 23 23 23 22 22 22 23 23 23 23 24 25 25 26 26 26 25 24 23 23 23 23 23 24 26 27 29 30
26 25 24 24 24 22 21 20 20 21 22 23 23 24 25 25 24 24 24 24 23 22 23 22 22 22 23 23 24 24 24 24 24 24 24 24 25 24 24 24 24 25 25 25 26 26 26 27 27 27 27 26 25 25 25 25 25 26 27 29 30 31 32
25 24 25 25 25 24 23 21 21 21 22 23 23 23 23 23 23 23 24 25 25 24 24 23 22 21 21 22 24 24 24 24 25 25 26 26 27 27 27 26 27 27 27 28 28 28 28 28 28 28 28 28 28 28 28 29 29 30 30 31 32 32 33
25 25 25 25 26 26 25 23 21 21 23 24 24 24 25 25 24 23 23 24 25 26 25 24 22 21 21 22 24 25 25 25 26 27 27 28 28 28 29 29 30 30 31 31 31 31 31 31 31 31 31 31 31 32 32 33 33 32 33 33 34 34 34
26 24 24 25 26 26 25 25 24 24 26 26 25 26 26 25 24 23 21 21 23 25 26 24 22 21 21 23 24 26 27 27 27 28 28 28 28 29 30 31 32 33 34 34 34 34 34 34 34 34 34 34 34 35 35 36 35 35 35 36 36 36 36
26 25 25 26 26 26 26 26 26 26 27 25 24 23 23 22 22 21 21 20 21 24 26 26 23 22 22 23 25 26 28 28 28 28 28 28 28 29 30 31 33 34 35 36 36 37 37 37 37 36 36 37 37 38 38 39 38 38 39 39 39 39 39
29 28 28 28 29 29 28 27 25 24 24 24 23 23 22 22 22 21 20 20 21 24 26 27 25 24 23 23 24 26 28 29 29 29 29 29 30 31 31 32 33 34 35 36 37 38 39 39 39 39 39 40 40 40 41 42 41 41 41 42 42 42 42
30 29 28 28 29 29 27 25 24 23 22 22 23 23 23 23 23 22 21 20 21 23 26 27 27 26 25 24 25 27 28 30 30 31 31 32 33 34 34 35 35 36 37 38 39 40 40 40 41 41 42 42 43 43 44 44 44 43 43 44 44 44 44
27 26 26 26 27 26 25 25 25 24 23 23 24 25 25 25 24 24 23 23 23 24 26 28 29 28 28 28 28 29 30 32 33 34 35 35 36 37 37 37 38 38 39 40 40 41 42 42 43 44 44 44 45 45 46 46 45 46 46 46 47 47 47
26 26 25 25 26 26 27 27 27 27 26 26 26 27 27 27 27 27 26 26 27 27 28 30 31 31 32 32 32 33 34 35 36 37 38 39 39 39 39 40 40 40 40 40 41 42 43 44 45 45 46 46 47 47 48 48 48 49 50 50 51 51 51
28 28 29 29 29 30 30 30 30 30 30 30 29 30 30 30 30 29 29 29 30 30 31 33 34 35 35 36 36 36 37 38 39 40 40 41 41 42 42 42 43 44 44 44 44 45 45 46 47 48 48 49 50 50 51 52 52 52 53 54 54 55 55
31 32 32 33 33 32 32 32 32 32 32 31 31 31 31 31 30 30 30 30 31 32 33 34 36 37 38 38 38 39 39 39 39 40 41 41 42 43 44 46 46 47 48 49 49 49 50 51 51 52 53 54 55 55 56 56 57 57 57 58 59 59 60
33 34 34 34 34 33 32 32 32 32 32 31 31 32 31 31 30 30 31 31 32 34 35 36 38 39 39 40 40 40 40 40 40 41 42 43 44 46 47 48 49 49 50 52 52 52 53 54 55 56 57 59 60 61 61 62 62 62 62 62 63 64 64
33 34 34 34 34 33 33 33 33 33 33 32 32 32 32 31 31 31 33 34 35 37 38 39 40 41 41 42 43 43 43 43 43 44 44 45 46 47 48 49 49 49 51 52 53 54 55 56 58 59 60 61 63 64 64 64 65 66 66 66 67 67 68
33 34 34 34 35 34 34 33 33 33 33 33 34 34 34 34 34 35 37 38 39 40 40 41 42 42 43 44 44 45 45 45 45 46 46 47 48 49 50 52 52 53 55 56 58 59 60 61 62 63 64 65 65 66 67 67 68 68 69 69 69 69 69
34 34 34 34 34 34 34 33 34 34 35 35 36 37 37 37 38 39 39 40 40 41 42 42 43 44 45 47 48 49 49 50 51 52 53 54 55 56 57 57 58 59 60 61 62 63 64 65 66 66 67 68 69 70 70 71 71 71 72 72 72 73 72
Wind_Direction
226 229 231 230 232 234 236 235 232 231 234 238 242 245 249 253 255 257 257 258 259 259 257 255 253 253 252 251 250 249 249 249 251 253 255 255 255 253 252 256 256 256 262 267 268 268 273 277 277 278 280 283 284 284 283 281 282 284 290 298 303 304 303
226 230 233 233 233 234 236 235 232 232 237 244 248 251 254 256 258 259 261 263 262 261 257 254 254 253 251 249 248 248 249 249 251 253 256 259 259 258 258 261 259 255 254 256 263 269 273 275 275 276 276 277 279 278 279 281 281 283 289 296 300 302 301
230 231 233 233 233 234 234 234 233 236 242 248 251 253 255 256 258 261 263 264 264 261 257 255 254 254 252 251 250 250 250 252 254 257 259 262 264 263 263 264 264 263 261 258 262 266 268 270 272 275 276 276 277 278 280 283 284 286 289 293 295 296 296
232 233 234 234 234 236 236 235 235 237 243 248 251 252 253 254 257 260 260 262 262 259 255 253 253 253 253 254 256 257 257 257 259 260 261 263 265 266 266 266 265 263 261 261 263 264 267 269 270 271 274 276 277 279 280 280 282 283 284 285 286 288 289
231 233 235 236 237 239 239 238 237 239 242 246 249 251 252 254 255 255 255 257 260 257 252 250 251 253 256 259 263 265 266 266 265 265 263 262 263 266 268 269 267 261 256 258 263 266 266 267 269 270 274 279 281 282 281 281 281 282 281 280 280 281 282
231 233 235 236 239 241 241 241 240 241 243 244 248 249 251 254 252 250 251 254 258 256 251 249 251 254 259 263 267 270 272 272 271 268 266 263 262 265 266 266 266 265 263 262 264 267 264 264 274 279 280 282 283 283 283 283 284 284 284 283 283 284 284
232 234 236 236 238 240 239 240 240 241 243 244 246 248 250 251 248 248 250 253 256 256 252 250 251 255 260 264 268 271 273 273 270 267 265 264 263 263 262 260 260 264 268 266 265 267 263 263 274 279 279 280 281 281 283 285 285 286 287 288 289 290 289
236 236 237 237 238 239 239 239 239 239 241 242 244 246 249 248 246 248 250 250 252 254 252 250 251 255 259 263 267 271 273 272 269 265 263 262 260 259 259 259 259 261 267 267 266 268 265 265 272 276 278 280 280 281 283 284 285 286 288 290 291 291 290
239 240 240 241 242 243 243 241 239 240 241 243 245 246 246 246 246 246 246 246 249 252 250 249 251 255 256 258 263 270 274 273 269 264 261 259 259 259 259 260 260 261 263 265 267 270 270 272 275 276 277 279 281 282 283 284 285 286 288 290 290 290 289
238 240 241 243 247 248 247 243 241 242 244 246 247 246 243 242 244 243 241 243 247 248 247 248 251 255 256 256 259 266 274 275 270 265 261 260 261 263 263 260 259 261 263 265 269 272 274 276 276 276 278 282 285 287 287 287 286 287 288 287 286 286 286
238 238 239 242 246 248 246 242 242 244 246 248 248 245 242 241 241 239 238 241 246 246 245 247 250 254 255 255 257 263 272 275 271 265 260 259 260 262 264 263 263 265 268 271 274 276 276 277 275 277 283 289 291 291 289 288 286 286 284 282 282 283 284
239 237 239 241 242 243 242 241 243 245 245 244 244 244 243 240 236 233 234 240 244 244 243 244 247 250 253 254 255 260 269 274 272 266 260 257 257 258 260 263 266 271 275 278 279 280 280 280 277 278 283 288 289 289 288 289 288 286 284 283 283 284 286
237 233 236 241 242 242 242 242 242 241 238 237 238 242 241 234 229 228 232 238 242 242 242 242 244 248 251 253 253 256 263 269 271 268 263 260 259 261 263 269 276 283 286 285 284 284 284 285 284 282 282 284 286 287 289 291 290 288 287 287 287 288 290
231 229 234 241 242 240 239 239 235 230 229 231 235 240 240 232 226 227 232 237 240 242 241 241 243 246 251 254 254 254 258 265 270 270 268 268 269 272 275 280 287 291 291 290 288 287 286 285 283 282 281 282 284 288 290 292 292 291 292 292 292 292 293
228 229 234 238 234 230 233 232 226 222 224 231 239 245 246 243 237 234 235 239 241 242 242 241 243 245 250 255 256 256 257 261 267 270 271 272 275 278 280 281 284 284 285 285 284 284 283 281 279 277 277 278 282 287 290 291 292 293 295 295 294 294 295
226 228 230 230 225 224 229 227 220 217 221 233 244 249 251 249 247 243 241 241 242 243 243 242 243 246 250 254 257 258 258 260 263 267 271 273 274 276 278 279 280 279 278 277 277 277 278 276 274 272 273 275 279 283 286 288 289 291 292 292 291 292 293
225 228 228 227 224 225 228 223 217 215 220 231 240 246 249 248 246 243 241 240 241 242 243 243 245 247 250 252 255 258 259 259 261 263 267 270 272 274 276 278 279 278 275 274 274 274 274 275 274 272 271 272 274 277 279 281 283 284 285 286 286 287 287
229 232 232 229 225 226 226 220 217 216 218 227 236 243 246 245 242 239 237 237 237 240 243 245 248 250 251 253 253 255 257 258 259 260 262 265 268 271 274 276 278 277 275 274 273 273 273 273 272 270 270 269 270 272 275 277 278 279 280 281 282 283 283
229 230 230 227 221 223 224 221 220 219 220 229 237 241 242 241 238 233 231 233 236 240 245 248 250 251 253 255 255 255 257 258 259 259 260 261 264 267 271 274 276 276 275 274 273 272 271 270 270 269 268 268 269 271 274 275 276 276 278 279 279 279 278
229 229 229 225 219 219 222 222 224 225 227 233 238 240 240 240 237 234 236 240 244 248 251 252 252 251 251 253 254 255 256 258 259 259 260 261 263 266 269 271 272 271 271 270 270 270 270 269 269 269 268 268 270 272 274 274 274 275 276 277 276 276 275
231 233 230 224 220 221 224 226 229 232 234 238 240 241 241 242 241 242 244 248 251 255 256 255 254 252 251 251 251 252 253 254 256 257 258 260 263 265 267 267 267 267 266 267 267 267 268 268 269 269 268 268 269 271 272 273 273 274 275 275 275 275 276
231 232 228 224 223 225 228 231 235 237 239 240 240 240 242 245 248 250 250 251 254 257 258 257 255 253 252 251 250 250 251 252 253 254 255 259 262 264 264 263 262 262 263 263 263 264 265 266 267 267 266 267 268 269 270 270 271 272 273 275 276 277 277
231 229 227 226 226 228 233 237 240 241 240 240 240 241 243 246 250 253 254 254 255 257 257 256 255 253 251 251 250 250 250 249 250 251 255 258 260 260 259 258 257 258 259 260 260 261 262 263 264 265 265 265 265 265 265 266 267 270 272 274 276 277 278
232 231 228 228 229 232 237 242 242 240 239 240 241 241 241 245 252 257 259 256 252 252 254 253 253 254 252 251 250 249 249 249 250 253 257 260 261 261 261 261 260 260 260 259 259 259 259 260 261 262 263 262 261 261 262 263 266 268 271 273 276 277 279
234 233 230 230 233 236 240 242 241 240 241 242 244 245 247 251 254 256 259 257 249 246 249 251 253 256 257 256 253 250 249 250 253 257 261 264 265 267 268 268 268 266 264 262 259 258 257 257 258 259 259 260 260 261 262 264 267 269 272 274 275 276 277
231 232 232 233 237 241 244 244 242 243 245 247 250 252 253 253 250 248 255 257 251 247 249 251 254 259 263 262 258 254 251 252 255 259 263 267 269 270 271 271 271 270 268 265 262 260 258 257 257 258 259 260 262 263 265 267 268 270 272 273 273 274 274
229 233 235 237 240 243 245 246 244 243 246 248 252 253 251 249 245 245 250 254 253 253 252 251 253 260 266 267 263 258 256 256 257 259 263 266 269 271 272 272 272 271 269 267 264 262 261 260 259 260 261 262 263 265 266 267 268 270 270 270 270 270 271
230 236 238 238 239 242 245 248 248 248 249 250 251 250 247 245 244 245 249 252 254 254 253 251 253 259 265 268 267 265 262 261 261 262 265 268 270 272 273 272 272 271 269 268 266 265 263 262 262 261 261 262 263 264 265 266 268 269 269 269 268 268 269
234 238 240 239 241 243 246 248 249 249 250 250 249 247 246 245 245 247 252 256 256 253 251 251 254 259 263 265 267 266 264 264 264 266 269 271 273 274 274 273 272 270 269 268 268 267 265 265 264 264 264 264 265 266 267 268 270 270 270 270 270 270 271
237 239 240 240 241 242 242 243 246 248 248 247 246 245 245 245 246 249 255 258 258 254 250 250 254 259 264 266 267 266 265 263 264 266 268 271 272 273 273 273 271 270 270 269 269 268 267 267 266 266 266 266 267 268 268 269 270 270 270 270 270 270 271
238 240 241 242 242 241 242 244 248 249 248 247 246 246 247 248 250 254 258 260 260 258 256 255 257 261 265 267 267 267 266 265 265 266 268 270 271 272 273 272 271 270 270 271 270 269 269 269 268 268 268 268 268 269 269 269 270 270 271 271 271 272 271
240 241 243 245 245 246 247 248 248 247 246 246 246 247 249 251 254 258 260 261 261 261 260 260 261 263 265 266 266 266 266 267 267 268 269 271 272 273 273 273 272 272 272 272 272 272 272 272 271 270 269 269 269 269 270 270 271 272 273 273 274 274 274
243 243 245 246 247 248 248 249 248 248 248 248 249 250 252 255 257 260 262 263 264 264 264 264 264 265 265 266 266 267 267 267 268 269 270 271 272 273 273 273 273 274 274 274 274 275 275 275 274 273 273 272 272 272 273 273 274 274 274 274 274 275 275
244 245 245 246 246 247 247 248 249 250 251 253 254 254 255 256 258 261 263 265 266 266 266 266 266 266 266 267 267 268 268 268 269 269 270 270 271 272 272 272 272 273 274 275 275 275 276 276 276 276 276 276 276 276 276 276 276 276 276 276 276 276 276
244 245 246 247 248 248 248 248 250 252 253 254 254 254 254 254 257 261 263 264 265 265 266 267 267 268 268 269 269 269 270 270 270 270 271 271 271 271 271 272 272 272 273 274 275 275 275 275 276 276 276 276 276 276 276 276 276 277 277 276 276 277 277
243 245 246 247 248 249 249 250 251 253 255 255 254 253 253 255 258 261 262 262 264 265 266 268 269 269 270 270 271 271 271 271 271 271 271 271 271 272 272 273 273 273 273 274 274 275 275 275 275 274 274 274 274 274 274 274 274 275 275 275 275 276 276
243 245 246 248 249 250 251 253 254 255 256 256 255 256 257 259 262 264 264 264 265 265 266 267 269 270 271 272 273 273 273 273 273 273 273 273 274 274 274 274 274 274 274 274 274 274 274 274 274 274 273 273 273 273 273 273 273 273 274 274 274 274 275
Height
5786 5787 5788 5788 5789 5791 5792 5794 5796 5797 5799 5800 5801 5801 5802 5803 5804 5804 5805 5806 5806 5806 5806 5806 5806 5806 5807 5807 5807 5808 5808 5808 5808 5809 5809 5809 5810 5810 5811 5811 5811 5811 5811 5811 5811 5811 5810 5810 5810 5810 5810 5810 5810 5810 5810 5810 5811 5811 5811 5811 5811 5811 5811
5785 5785 5785 5786 5787 5789 5791 5793 5794 5796 5797 5799 5799 5800 5801 5802 5802 5803 5804 5804 5805 5805 5805 5805 5805 5805 5805 5806 5806 5806 5807 5807 5807 5808 5808 5808 5808 5809 5810 5810 5810 5811 5812 5811 5811 5810 5810 5809 5809 5809 5809 5809 5809 5809 5809 5809 5810 5810 5810 5810 5810 5810 5810
5783 5783 5783 5784 5785 5787 5789 5791 5793 5794 5796 5797 5798 5799 5800 5800 5801 5802 5802 5803 5804 5804 5804 5804 5804 5804 5804 5804 5805 5805 5806 5806 5806 5807 5807 5807 5807 5808 5809 5809 5810 5810 5810 5811 5810 5810 5810 5809 5809 5808 5808 5808 5808 5808 5808 5808 5809 5809 5809 5809 5809 5809 5809
5780 5780 5781 5782 5784 5786 5787 5788 5791 5793 5794 5795 5796 5797 5798 5799 5800 5800 5801 5802 5802 5803 5803 5803 5803 5802 5803 5803 5803 5804 5804 5805 5805 5805 5806 5806 5806 5807 5808 5809 5809 5809 5809 5809 5809 5808 5808 5808 5808 5808 5807 5807 5807 5807 5807 5807 5808 5808 5808 5808 5808 5808 5808
5777 5777 5778 5780 5783 5784 5785 5787 5789 5791 5792 5793 5794 5795 5796 5797 5798 5799 5799 5800 5801 5801 5801 5801 5801 5801 5801 5802 5802 5802 5803 5803 5804 5804 5804 5805 5805 5806 5807 5807 5807 5807 5808 5808 5807 5808 5808 5806 5806 5806 5806 5806 5806 5806 5806 5806 5806 5806 5806 5806 5806 5806 5806
5773 5774 5776 5778 5781 5782 5784 5785 5787 5788 5790 5791 5792 5793 5794 5795 5796 5797 5797 5798 5799 5799 5800 5800 5800 5800 5800 5800 5801 5801 5801 5801 5802 5802 5802 5803 5804 5805 5805 5806 5804 5804 5806 5806 5806 5807 5807 5805 5804 5804 5805 5805 5805 5805 5804 5804 5804 5804 5805 5805 5805 5805 5805
5770 5772 5774 5776 5778 5780 5781 5783 5785 5786 5787 5788 5790 5791 5792 5793 5794 5795 5795 5796 5796 5797 5798 5798 5798 5799 5799 5799 5799 5799 5799 5800 5800 5800 5800 5801 5802 5803 5804 5804 5804 5803 5804 5805 5805 5806 5806 5804 5803 5803 5803 5803 5803 5803 5803 5803 5803 5803 5803 5803 5803 5803 5803
5770 5771 5773 5775 5776 5778 5779 5781 5782 5783 5784 5786 5787 5788 5789 5791 5792 5793 5793 5794 5794 5795 5796 5796 5797 5797 5798 5798 5798 5798 5798 5798 5798 5799 5799 5800 5801 5802 5802 5803 5803 5802 5803 5804 5804 5805 5804 5804 5803 5803 5803 5802 5802 5802 5802 5802 5802 5802 5802 5802 5802 5802 5802
5770 5772 5773 5775 5776 5777 5778 5779 5780 5780 5782 5783 5784 5786 5787 5788 5790 5791 5791 5792 5793 5793 5794 5795 5795 5795 5796 5796 5796 5797 5797 5797 5797 5797 5798 5798 5799 5800 5801 5801 5801 5801 5802 5802 5803 5803 5803 5803 5803 5802 5801 5801 5801 5801 5801 5801 5801 5801 5801 5801 5800 5800 5800
5769 5771 5772 5773 5775 5776 5777 5778 5778 5778 5780 5781 5782 5784 5785 5787 5788 5789 5789 5790 5791 5792 5793 5793 5793 5794 5794 5795 5795 5795 5795 5795 5795 5796 5797 5797 5798 5798 5799 5800 5800 5800 5801 5801 5801 5802 5802 5802 5802 5800 5800 5800 5800 5800 5800 5800 5800 5800 5799 5799 5799 5799 5798
5766 5768 5770 5771 5773 5774 5775 5776 5776 5777 5778 5779 5780 5781 5783 5785 5786 5786 5787 5788 5789 5790 5791 5791 5792 5792 5793 5793 5794 5794 5794 5794 5794 5795 5795 5796 5796 5796 5797 5797 5798 5798 5799 5799 5800 5800 5800 5801 5800 5798 5798 5798 5798 5798 5798 5798 5798 5798 5798 5797 5797 5797 5797
5764 5766 5768 5770 5771 5772 5773 5774 5774 5775 5776 5777 5777 5779 5781 5782 5783 5784 5785 5786 5787 5788 5789 5790 5790 5790 5791 5792 5792 5793 5793 5793 5793 5793 5794 5794 5795 5795 5795 5796 5796 5797 5797 5797 5798 5798 5798 5799 5799 5798 5796 5796 5796 5797 5797 5797 5797 5796 5796 5796 5796 5795 5795
5763 5765 5767 5768 5769 5770 5771 5772 5773 5773 5774 5775 5776 5777 5778 5780 5781 5782 5783 5784 5785 5786 5787 5788 5788 5789 5789 5790 5790 5791 5791 5792 5792 5792 5793 5793 5793 5794 5794 5794 5794 5795 5795 5795 5796 5796 5796 5796 5797 5796 5796 5796 5795 5795 5795 5795 5795 5795 5795 5794 5794 5794 5793
5761 5763 5765 5766 5767 5768 5769 5770 5771 5772 5772 5773 5774 5775 5776 5777 5779 5780 5781 5782 5783 5784 5785 5786 5786 5787 5787 5788 5788 5789 5790 5790 5791 5791 5791 5792 5792 5792 5792 5793 5793 5793 5793 5794 5794 5794 5795 5795 5795 5794 5794 5794 5794 5794 5793 5793 5793 5793 5793 5792 5792 5792 5791
5759 5760 5762 5764 5765 5766 5767 5768 5769 5770 5771 5772 5772 5773 5774 5775 5777 5778 5779 5780 5781 5782 5783 5784 5784 5785 5785 5786 5787 5787 5788 5789 5789 5790 5790 5790 5791 5791 5791 5791 5792 5792 5792 5792 5793 5793 5793 5793 5793 5793 5792 5792 5792 5792 5792 5792 5791 5791 5791 5790 5790 5790 5789
5756 5758 5759 5761 5762 5763 5764 5766 5767 5768 5769 5770 5770 5771 5772 5773 5774 5775 5776 5777 5778 5779 5780 5781 5782 5783 5783 5784 5784 5785 5786 5786 5787 5788 5788 5789 5789 5790 5790 5790 5790 5791 5790 5791 5791 5791 5791 5791 5791 5790 5790 5790 5790 5790 5790 5790 5790 5789 5789 5789 5788 5788 5788
5753 5755 5757 5758 5760 5761 5762 5763 5764 5766 5767 5768 5769 5769 5770 5771 5772 5773 5774 5775 5776 5777 5778 5779 5780 5780 5781 5781 5782 5783 5783 5784 5785 5785 5786 5787 5787 5788 5788 5788 5789 5789 5789 5789 5789 5789 5789 5788 5788 5788 5788 5788 5788 5788 5788 5788 5787 5787 5787 5787 5786 5786 5786
5752 5754 5756 5757 5758 5759 5760 5761 5762 5763 5765 5766 5767 5768 5768 5769 5769 5770 5771 5772 5773 5774 5775 5776 5777 5778 5778 5779 5779 5780 5781 5782 5782 5783 5784 5784 5785 5785 5786 5786 5787 5787 5787 5786 5786 5786 5786 5786 5786 5786 5786 5786 5785 5785 5785 5785 5785 5785 5785 5785 5784 5784 5784
5750 5751 5752 5754 5755 5756 5757 5758 5760 5761 5763 5764 5765 5766 5766 5766 5767 5768 5769 5770 5771 5772 5773 5773 5774 5775 5776 5776 5777 5777 5778 5779 5779 5780 5781 5781 5782 5782 5783 5783 5783 5784 5784 5784 5784 5784 5784 5784 5783 5783 5783 5783 5783 5783 5783 5783 5783 5783 5782 5782 5782 5781 5781
5747 5748 5749 5751 5753 5754 5755 5756 5758 5759 5761 5762 5763 5764 5764 5764 5765 5766 5767 5768 5769 5769 5770 5770 5771 5772 5773 5773 5774 5774 5775 5775 5776 5776 5777 5777 5778 5779 5779 5780 5780 5780 5781 5781 5781 5781 5781 5781 5780 5780 5780 5780 5780 5780 5780 5780 5780 5780 5780 5780 5779 5779 5779
5745 5746 5748 5750 5751 5752 5753 5755 5756 5757 5759 5760 5761 5762 5762 5762 5763 5764 5765 5765 5766 5767 5767 5768 5768 5768 5769 5770 5770 5771 5771 5772 5772 5773 5773 5774 5774 5775 5775 5776 5776 5777 5777 5778 5778 5778 5778 5778 5777 5777 5777 5777 5778 5778 5778 5778 5778 5777 5777 5777 5777 5777 5777
5743 5744 5746 5748 5749 5750 5752 5753 5754 5755 5757 5758 5758 5759 5759 5760 5761 5761 5762 5763 5764 5764 5765 5765 5765 5765 5766 5767 5767 5768 5768 5768 5769 5769 5770 5770 5771 5771 5772 5773 5773 5773 5773 5774 5774 5774 5774 5774 5774 5774 5774 5774 5774 5774 5774 5775 5775 5775 5775 5774 5774 5774 5774
5740 5742 5744 5745 5746 5748 5749 5750 5752 5753 5754 5755 5756 5757 5757 5757 5758 5759 5759 5760 5761 5762 5762 5762 5763 5763 5763 5764 5764 5765 5765 5765 5766 5766 5766 5767 5767 5768 5768 5769 5770 5770 5770 5770 5771 5770 5770 5770 5770 5770 5770 5770 5771 5771 5771 5771 5771 5771 5771 5771 5770 5769 5769
5738 5739 5741 5742 5744 5745 5747 5748 5749 5750 5751 5752 5753 5754 5755 5755 5755 5756 5756 5757 5758 5759 5759 5759 5760 5760 5760 5761 5761 5762 5762 5762 5763 5763 5763 5763 5764 5764 5765 5765 5766 5766 5767 5767 5767 5767 5766 5766 5766 5766 5766 5766 5767 5767 5767 5767 5767 5767 5767 5766 5766 5765 5765
5737 5738 5739 5741 5742 5742 5744 5745 5746 5747 5748 5749 5750 5751 5752 5752 5753 5753 5753 5753 5754 5755 5756 5756 5757 5757 5757 5758 5758 5758 5759 5759 5760 5760 5760 5760 5761 5761 5761 5762 5762 5763 5763 5763 5763 5763 5762 5762 5762 5762 5762 5762 5763 5763 5763 5763 5763 5763 5762 5762 5761 5761 5760
5734 5736 5737 5738 5739 5740 5741 5742 5743 5744 5745 5746 5747 5747 5748 5749 5749 5750 5750 5750 5751 5752 5753 5754 5754 5754 5755 5755 5755 5756 5756 5756 5756 5757 5757 5758 5758 5758 5758 5759 5759 5759 5759 5759 5759 5759 5758 5758 5758 5758 5758 5759 5759 5759 5759 5759 5759 5758 5758 5757 5757 5757 5756
5732 5733 5735 5736 5736 5737 5738 5739 5740 5741 5741 5742 5743 5744 5744 5745 5746 5746 5747 5747 5748 5749 5750 5751 5751 5752 5752 5752 5753 5753 5753 5753 5754 5754 5754 5755 5755 5755 5755 5755 5755 5755 5756 5755 5755 5755 5755 5755 5755 5755 5755 5755 5755 5755 5755 5755 5755 5754 5754 5753 5753 5752 5752
5729 5730 5731 5732 5733 5734 5735 5735 5736 5737 5738 5739 5740 5740 5741 5742 5742 5743 5744 5744 5745 5746 5747 5748 5748 5749 5749 5749 5750 5750 5750 5751 5751 5751 5751 5752 5752 5752 5752 5752 5752 5752 5752 5751 5751 5751 5751 5751 5751 5751 5751 5751 5751 5751 5751 5751 5750 5750 5749 5749 5748 5748 5747
5725 5726 5728 5729 5730 5731 5732 5732 5733 5734 5735 5736 5737 5738 5738 5739 5740 5740 5741 5742 5742 5743 5744 5744 5745 5745 5746 5746 5747 5747 5747 5748 5748 5748 5748 5748 5748 5748 5748 5748 5748 5748 5747 5747 5747 5747 5747 5747 5746 5746 5746 5746 5746 5746 5746 5746 5745 5744 5743 5743 5742 5742 5742
5722 5723 5725 5726 5727 5728 5729 5730 5730 5731 5732 5733 5734 5735 5735 5736 5737 5737 5738 5739 5739 5739 5740 5741 5741 5742 5742 5742 5743 5744 5744 5744 5744 5744 5744 5744 5744 5744 5744 5743 5743 5743 5743 5743 5743 5743 5742 5742 5742 5741 5741 5741 5740 5740 5740 5740 5739 5738 5737 5737 5736 5736 5736
5719 5720 5721 5723 5724 5725 5726 5727 5727 5728 5729 5730 5731 5731 5732 5732 5733 5734 5735 5735 5735 5736 5737 5737 5738 5738 5738 5739 5739 5739 5740 5740 5740 5740 5740 5740 5739 5739 5739 5739 5739 5738 5739 5739 5739 5738 5738 5737 5737 5736 5736 5735 5735 5734 5734 5734 5733 5732 5731 5731 5731 5730 5729
5716 5717 5718 5720 5721 5721 5722 5723 5724 5725 5725 5726 5727 5728 5728 5729 5730 5730 5731 5732 5732 5733 5733 5733 5734 5734 5734 5734 5735 5735 5735 5735 5735 5735 5735 5734 5734 5734 5734 5734 5734 5734 5734 5734 5734 5733 5732 5732 5732 5731 5731 5730 5729 5729 5728 5727 5727 5726 5725 5724 5724 5723 5722
5713 5714 5715 5716 5717 5718 5718 5719 5720 5721 5721 5722 5723 5724 5725 5725 5726 5727 5727 5728 5728 5729 5729 5729 5730 5730 5730 5730 5730 5730 5730 5730 5730 5729 5729 5729 5729 5728 5728 5728 5728 5728 5727 5727 5727 5727 5726 5726 5725 5725 5724 5723 5722 5722 5721 5720 5719 5719 5718 5717 5716 5716 5715
5709 5710 5711 5712 5713 5714 5715 5715 5716 5717 5717 5718 5719 5720 5721 5721 5722 5722 5723 5723 5724 5724 5724 5725 5725 5725 5725 5725 5725 5725 5725 5725 5724 5724 5724 5724 5723 5723 5722 5721 5723 5723 5721 5720 5720 5720 5720 5719 5718 5717 5717 5716 5714 5713 5712 5712 5711 5710 5710 5709 5708 5707 5706
5706 5707 5707 5708 5709 5710 5711 5711 5712 5713 5713 5714 5715 5715 5716 5716 5717 5717 5718 5718 5719 5719 5720 5720 5720 5720 5720 5720 5720 5720 5720 5720 5719 5718 5718 5718 5717 5717 5716 5715 5716 5717 5715 5713 5713 5713 5712 5711 5711 5710 5709 5707 5706 5704 5704 5703 5702 5701 5700 5700 5699 5698 5697
5702 5702 5703 5704 5704 5705 5706 5707 5708 5709 5709 5710 5710 5711 5711 5711 5712 5712 5713 5713 5714 5714 5715 5715 5715 5715 5715 5715 5715 5715 5715 5714 5714 5713 5713 5712 5711 5711 5710 5709 5709 5709 5708 5706 5706 5705 5704 5703 5702 5701 5700 5699 5697 5696 5695 5694 5694 5693 5691 5690 5690 5689 5688
5698 5698 5699 5700 5701 5701 5702 5703 5704 5704 5705 5705 5706 5706 5706 5707 5707 5707 5708 5708 5709 5709 5709 5710 5710 5710 5709 5709 5709 5709 5708 5708 5708 5707 5706 5706 5705 5704 5703 5703 5702 5700 5699 5698 5697 5696 5695 5694 5693 5692 5691 5689 5688 5686 5685 5685 5685 5684 5682 5681 5681 5680 5679